User: anonymous   Login
Location: Brede
(50.9167°N, 0.6000°E)
Time: 06:39:01
(UTC+00:00)
Language:

SL-16 R/B - Orbit

View from above orbital plane
View from above orbital plane
View from above satellite
View from above satellite

Ground track
Ground track

The orbit data is extracted from the following two-line orbital elements,

1 27006U 01056F   20292.93999194 -.00000047 +00000-0 -30344-5 0  9997
2 27006 099.4914 062.6869 0014923 024.1336 081.3875 13.70964468943543
Epoch (UTC): 18 October 2020 22:33:35
Eccentricity: 0.0014923
inclination: 99.4914°
perigee height: 985 km
apogee height: 1007 km
right ascension of ascending node: 62.6869°
argument of perigee: 24.1336°
revolutions per day: 13.70964468
mean anomaly at epoch: 81.3875°
orbit number at epoch: 94354

The dashed part of the orbit path shows where the satellite is in the earth's shadow,  

DLR